Погода в Каасапе

Парагвай     26°11′40″S   56°22′06″W
темп.,
°C
ветер,
м/с
пор.,
м/с
влажн.,
%
обл.,
%
осадки,
мм/ч
давл.,
гПа
погр.,
м
1 марта, пн
пн100:00+23вюв27710 0.0 1009233
03:00+21в12820 0.0 100834
06:00+20в12870 0.0 100934
09:00+25св25690 0.0 1010429
12:00+34ссв22430 0.0 10101434
15:00+32св324720 0.1 10061345
18:00+32в235139 0.0 10051087
21:00+24св237823 0.5 100745
2 марта, вт
вт200:00+23св24870 0.1 1008107
03:00+22св26900 0.1 1008152
06:00+22св26930 0.0 1010141
09:00+26св25720 0.0 1011430
12:00+30ссв247013 1.9 10111290
15:00+35ссв12446 2.8 10071369
18:00+32в125239 0.0 1007401
21:00+27в236328 0.0 100945
3 марта, ср
ср300:00+25в367254 0.0 1011172
03:00+22св278927 0.2 1010207
06:00+22св25930 0.1 1011160
09:00+26св35790 0.1 1013364
12:00+35ссв23420 0.0 10111683
15:00+36с114021 0.0 10092031
18:00+33вюв234952 0.0 1007308
21:00+24з239247 4.1 100996
4 марта, чт
чт400:00+23всв51295100 3.5 1011412
03:00+22ссв31196100 3.5 1010388
06:00+23ссв2893100 0.0 1010337
09:00+26ссв3578100 0.1 1012521
12:00+32с3555100 0.0 10101375
15:00+33с235082 1.6 10081507
18:00+24зсз3794100 12.3 1006139
21:00+20ююв2698100 16.2 1008223
5 марта, пт
пт500:00+21вюв1599100 1.9 1008228
03:00+21юв1199100 7.4 100669
06:00+21вюв1399100 3.9 1005157
09:00+22юз2399100 4.1 1007162
12:00+25юз238497 0.3 1007547
15:00+26ююз359164 8.8 1005653
18:00+25ю35923 2.1 1004571
21:00+21ююз259821 2.2 1005162